Regional Weather Roundup
Issued by NWS

Home | Current Version | Previous Version | Text Only | Print | Product List | Glossary Off
Versions: 1 2 3 4 5 6 7 8 9 10 11 12 13 14 15 16 17 18 19 20 21 22 23 24 25 26 27 28 29 30 31 32 33 34 35 36 37 38 39 40 41 42 43 44 45 46 47 48 49 50

000
ASUS45 KABQ 020310
RWRNM
NEW MEXICO REGIONAL WEATHER ROUNDUP
NATIONAL WEATHER SERVICE ALBUQUERQUE NM
900 PM MDT SUN MAY 01 2016

NOTE: "FAIR" MEANS FEW OR NO CLOUDS BELOW 12,000 FEET AGL WITH NO
       SIGNIFICANT WEATHER OR OBSTRUCTIONS TO VISION.

      THIS PRODUCT IS RELEASED AS TWO VERSIONS.  ONE VERSION NEAR
      THE TOP OF THE HOUR CONTAINING PRELIMINARY DATA FROM ALBUQUERQUE
      AND OTHER STATIONS.  A FINAL VERSION WITH ADDITIONAL DATA IS
      ISSUED ABOUT 10 MINUTES AFTER THE HOUR.

NMZ501-503-504-510>518-020400-
NORTHWEST PLATEAU/NORTHCENTRAL MOUNTAINS

CITY           SKY/WX    TMP DP  RH WIND       PRES   REMARKS
FARMINGTON     CLOUDY    44  39  82 E7        30.14R
LOS ALAMOS     DRIZZLE   35  35  99 SW13G18   30.23R WCI  26
SANTA FE       MOCLDY    39  30  70 S15       30.21R WCI  31
TAOS           CLOUDY    37  21  52 SE6       30.22R WCI  33
ANGEL FIRE     CLOUDY    31  24  75 N8        30.25R WCI  23

$$
NMZ402-403-502-505>509-020400-
WESTCENTRAL MOUNTAINS/SOUTHWEST MOUNTAINS

CITY           SKY/WX    TMP DP  RH WIND       PRES   REMARKS
GALLUP         MOCLDY    41  34  76 SE9       30.15R
GRANTS         CLOUDY    35  34  98 SE13G21   30.21R WCI  26
SILVER CITY      N/A     55  32  41 E20G26    30.10R

$$
NMZ407-409-411-412-020400-
SOUTHERN DESERTS

CITY           SKY/WX    TMP DP  RH WIND       PRES   REMARKS
LORDSBURG      CLOUDY    63  27  25 NW8       30.00R
DEMING         MOCLDY    58  39  49 NE14G23   30.06R
LAS CRUCES     FAIR      53  32  45 CALM      30.10R
HOLLOMAN AFB   FAIR      54  29  37 N10       30.07R
ALAMOGORDO     FAIR      55  28  35 N3        30.08R
T OR C         LGT RAIN  47  34  60 N21G31    30.13R

$$
NMZ519>523-020400-
CENTRAL VALLEYS/CENTRAL HIGHLANDS

CITY           SKY/WX    TMP DP  RH WIND       PRES   REMARKS
ALBUQUERQUE    MOCLDY    41  34  76 E14       30.22R
DOUBLE EAGLE   CLOUDY    37  36  93 SE12      30.23R WCI  30
MORIARTY ARPT  CLOUDY    37  30  74 E3        30.27R
CLINES CORNERS LGT SNOW  32  30  92 E16       30.23R FOG     WCI  21
BELEN          CLOUDY    42  38  86 W6        30.23R
SOCORRO        DRIZZLE   42  37  83 NW15G23   30.23R

$$
NMZ524>526-539-540-020400-
SOUTHCENTRAL MOUNTAINS

CITY           SKY/WX    TMP DP  RH WIND       PRES   REMARKS
RUIDOSO          N/A     32  32 100 SE10      30.26R WCI  24

$$
NMZ527>531-020400-
NORTHEAST HIGHLANDS/NORTHEAST PLAINS

CITY           SKY/WX    TMP DP  RH WIND       PRES   REMARKS
LAS VEGAS      CLOUDY    32  30  92 E7        30.26R WCI  26
RATON          FAIR      32  25  75 N8        30.26R WCI  25
CLAYTON        FAIR      34  32  92 N9        30.26R WCI  27

$$
NMZ532>537-020400-
EASTCENTRAL PLAINS

CITY           SKY/WX    TMP DP  RH WIND       PRES   REMARKS
TUCUMCARI      CLOUDY    44  38  79 NE8       30.26R
CANNON AFB     FAIR      40  37  87 NE16      30.24R WCI  32
CLOVIS AIRPORT CLOUDY    41  34  75 N16       30.26R

$$
NMZ028-029-538-020400-
SOUTHEAST PLAINS

CITY           SKY/WX    TMP DP  RH WIND       PRES   REMARKS
ROSWELL        CLOUDY    46  39  76 N6        30.25R
ARTESIA        CLOUDY    46  37  71 NE14      30.25R
CARLSBAD       CLOUDY    49  37  63 N14       30.22R
HOBBS          CLOUDY    45  36  70 N17       30.23R


$$




USA.gov is the U.S. government's official web portal to all federal, state and local government web resources and services.